Regional Weather Roundup
Issued by NWS

Home | Current Version | Previous Version | Graphics & Text | Print | Product List | Glossary On
Versions: 1 2 3 4 5 6 7 8 9 10 11 12 13 14 15 16 17 18 19 20 21 22 23 24 25 26 27
000
ASUS45 KBOU 190710
RWRCO

WEATHER ROUNDUP FOR COLORADO
NATIONAL WEATHER SERVICE DENVER/BOULDER CO
1200 AM MST FRI JAN 19 2018

NOTE: "FAIR" INDICATES FEW OR NO CLOUDS BELOW 12000 FEET WITH NO
SIGNIFICANT WEATHER AND/OR OBSTRUCTIONS TO VISIBILITY.

COZ001>005-013-030-031-190800-
...NORTHWEST COLORADO...

CITY           SKY/WX    TMP DP  RH WIND       PRES   REMARKS
CRAIG          FAIR      23  15  71 SW6       30.06F WCI  16
HAYDEN         FAIR     N/A N/A N/A E14       30.08F
MEEKER         FAIR      31  21  66 N9G18     30.07F WCI  23
RABBIT EARS PA FAIR      28  19  69 S8        30.15F WCI  20
STEAMBOAT SPGS FAIR      20  16  83 CALM      30.08F
WALDEN         FAIR      30  12  47 S13       30.07F WCI  20
$$

COZ006>008-011-190800-
...WEST CENTRAL VALLEYS...

CITY           SKY/WX    TMP DP  RH WIND       PRES   REMARKS
GRAND JUNCTION FAIR      33  19  56 E7        30.12F WCI  27
MONTROSE       FAIR      25  17  72 SE6       30.17F WCI  18
EAGLE          FAIR      19  12  74 E7        30.19F WCI  10
RIFLE          FAIR      26  21  81 CALM      30.14F
DELTA          FAIR      30  17  59 CALM      30.16F
NUCLA          FAIR      32  19  59 SE7       30.19F WCI  26
$$

COZ017>023-064>068-190800-
...SOUTHWEST COLORADO...

CITY           SKY/WX    TMP DP  RH WIND       PRES   REMARKS
DURANGO        FAIR      22  16  78 E3        30.21F
CORTEZ         FAIR      22  18  85 NE5       30.20F WCI  16
PAGOSA SPRINGS FAIR      26  16  68 CALM      30.22F
TELLURIDE      FAIR      32  14  47 SE8       30.24F WCI  25
WOLF CREEK PAS FAIR      30   5  34 SW12      30.35F WCI  21
$$

COZ009-010-012-014-032>034-037-058>063-190800-
...CENTRAL COLORADO...

CITY           SKY/WX    TMP DP  RH WIND       PRES   REMARKS
ASPEN          FAIR      24  14  65 S7        30.13F WCI  16
BUENA VISTA    FAIR      24   8  49 CALM      30.15F
COPPER MTN     NOT AVBL
BERTHOUD PASS  FAIR      28  18  64 W25G33    30.23F WCI  14
COTTONWOOD PAS   N/A     46  12  25 W5        30.18F
GUNNISON       FAIR      15   9  76 NE5       30.26S WCI   8
KREMMLING      FAIR      14  10  85 CALM      30.18F
LEADVILLE      FAIR      21  10  62 N3        30.18F
MONARCH PASS   FAIR      28  10  47 W36       30.36F WCI  12
SALIDA         FAIR      32   6  32 NW5       30.20F WCI  28
SUNLIGHT       FAIR      28  14  54 S12G22    30.23F WCI  18
WILKERSON PASS FAIR      34   1  25 W13G24    30.22F WCI  25
$$

COZ069>075-190800-
...SAN LUIS VALLEY/SANGRE DE CRISTO MOUNTAINS...

CITY           SKY/WX    TMP DP  RH WIND       PRES   REMARKS
ALAMOSA        FAIR      11  -4  51 CALM      30.19S
DEL NORTE      FAIR      19  -1  41 CALM      30.21S
LA VETA PASS   FAIR      30   3  31 SW35G41     N/A  WCI  14
SAGUACHE       FAIR      21   3  45 NW12      30.21F WCI   9
$$

COZ035-036-038>040-190800-
...NORTHERN COLORADO FRONT RANGE...

CITY           SKY/WX    TMP DP  RH WIND       PRES   REMARKS
DENVER INTL AP MOCLDY    43  14  31 S15       29.91F
DMNS CITY PARK NOT AVBL
AURORA         MOCLDY    40  11  30 S8        29.93F
FRONT RANGE AP FAIR      38  19  48 S12G20    29.93F
ERIE MUNI ARPT FAIR      31  21  67 SW5       29.95F WCI  26
BOULDER MUN AP FAIR      43  18  36 CALM      29.89F
CENTENNIAL     FAIR      36  10  34 SE7       29.93F
BROOMFIELD     FAIR      45  14  29 CALM      29.91F
FORT COLLINS   FAIR      37  21  52 S5        29.88F
LONGMONT       FAIR      34  23  65 SW5       29.90F WCI  29
$$

COZ041-046-047-076>085-087-088-190800-
...PIKES PEAK/PALMER DIVIDE AND SOUTHERN FOOTHILLS...

CITY           SKY/WX    TMP DP  RH WIND       PRES   REMARKS
COLO. SPRINGS  MOCLDY    33   8  35 N8        29.99F WCI  26
A. F. ACADEMY  FAIR      26   7  44 N10       29.99F WCI  16
SCHRIEVER AFB  FAIR      34   7  31 NW3       29.99F
CHEYENNE MTN   FAIR      43   9  24 NW3       29.95F
ELLICOTT         N/A    N/A N/A N/A NE3       29.97F
FALCON         FAIR      29   5  36 NW8       30.02S WCI  22
FORT CARSON    CLEAR     34  11  38 N13       29.97F WCI  25
LIMON          FAIR      22  12  65 N7        29.96S WCI  13
MONUMENT HILL  FAIR      36   9  32 S9        30.01F
CANON CITY     FAIR      46  12  25 W15       29.97F
WALSENBURG     FAIR      48   9  20 W15G22    30.00S
TRINIDAD       FAIR      32  10  40 W12       29.99F WCI  23
$$

COZ042>045-048>051-090-091-190800-
...NORTHEAST COLORADO...

CITY           SKY/WX    TMP DP  RH WIND       PRES   REMARKS
GREELEY ARPT   FAIR      25  18  74 NE5       29.89F WCI  19
AKRON          FAIR      43   8  23 SW13      29.88F
BURLINGTON     FAIR      38  17  42 W9        29.91F
WRAY           FAIR      34  19  55 W5        29.87F WCI  30
YUMA           FAIR      32  12  43 W9        29.87F WCI  24
STERLING       FAIR      28  21  74 SW8       29.86F WCI  20
HOLYOKE        FAIR      32  23  69 W7        29.86F WCI  26
FORT MORGAN    FAIR      29  17  60 W10       29.89F WCI  20
$$

COZ086-089-092>099-190800-
...SOUTHEAST COLORADO...

CITY           SKY/WX    TMP DP  RH WIND       PRES   REMARKS
PUEBLO         FAIR      27  11  51 W5        29.95F WCI  22
LA JUNTA       FAIR      31  14  49 W9        29.94F WCI  23
LAMAR          FAIR      17   2  51 SW6       29.92F WCI   9
SPRINGFIELD      N/A     29   7  39 W6        29.93F WCI  23
$$




USA.gov is the U.S. government's official web portal to all federal, state and local government web resources and services.